Tracking 18851 objects as of 25-Nov-2017
HD Live streaming from Space Station
objects crossing your sky now

LATINSAT B

Track LATINSAT B now!
10-day predictions
LATINSAT B is classified as:


NORAD ID: 27606
Int'l Code: 2002-058B
Perigee: 628.6 km
Apogee: 694.4 km
Inclination: 64.6 °
Period: 97.8 minutes
Semi major axis: 7032 km
RCS: 0.0241 m2 (small)
Launch date: December 20, 2002
Source: Argentina (ARGN)
Launch site: TYURATAM MISSILE AND SPACE COMPLEX (TTMTR)

Nanosatellite; planned constellation of 48 satellites, little LEO; asset tracking and monitoring services.
aabbcc
Your satellite tracking list
Your tracking list is empty




NASA's NSSDC Master Catalog

Two Line Element Set (TLE):
1 27606U 02058B   17328.58709667 +.00000012 +00000-0 +23491-4 0  9991
2 27606 064.5577 056.9298 0046735 037.8604 322.5768 14.72107434801464
Source of the keplerian elements: AFSPC